#timestamp,LO_Frequency,Hit,StdDev 
1652169615.2,286046998.5,N
1652169635.9,286046998.6,N
1652169655.7,286046998.3,N
1652169675.6,286047000.7,N
1652169695.4,286047000.4,N
1652169715.2,286047001.0,N
1652169735.1,286047000.4,N
1652169736.0,286047000.4,N
1652169755.8,286047000.5,N
1652169775.7,286047001.0,N
1652169795.5,286047001.0,N
1652169815.3,286047000.8,N
1652169835.2,286047000.3,N
1652169855.0,286047000.9,N
1652169855.9,286047000.9,N
1652169875.8,286046998.1,N
1652169895.6,286046998.2,N
1652169915.4,286046998.1,N
1652169935.3,286046998.7,N
1652169955.1,286047001.0,N
1652169975.8,286047000.0,N
1652169995.7,286047000.3,N
1652170015.5,286047000.8,N
1652170035.4,286046998.9,N
1652170055.2,286046998.4,N
1652170075.0,286047000.6,N
1652170075.9,286047000.6,N
1652170095.8,286047000.4,N
1652170115.6,286047000.2,N
1652170135.5,286046999.9,N
1652170155.3,286047000.3,N
1652170175.1,286047001.1,N
1652170195.9,286046998.6,N
1652170215.7,286047000.4,N
1652170235.6,286046998.1,N
1652170255.4,286047000.7,N
1652170275.2,286047000.9,N
1652170295.1,286047000.5,N
1652170296.0,286047000.5,N
1652170315.8,286047000.6,N
1652170335.7,286047000.5,N
1652170355.5,286047000.9,N
1652170375.3,286046999.8,N
1652170395.2,286047000.2,N
1652170415.0,286047000.2,N
1652170415.9,286047000.2,N
1652170435.8,286047002.1,N
1652170455.6,286047002.7,N
1652170475.4,286047002.1,N
1652170495.3,286047004.4,Y
1652170515.1,286047002.7,P
1652170535.8,286047001.6,N
1652170555.7,286047001.8,N
1652170575.5,286047004.4,Y
1652170595.4,286046999.7,P
1652170615.2,286047000.2,N
1652170635.0,286047002.2,N
1652170635.9,286047002.2,N
1652170655.8,286047002.0,N
1652170675.6,286047002.7,N
1652170695.4,286047002.8,N
1652170715.3,286047001.4,N
1652170735.1,286047002.0,N
1652170755.9,286047004.2,Y
1652170775.7,286047001.1,P
1652170795.5,286047002.8,P
1652170815.4,286047003.0,P
1652170835.2,286047007.1,Y
1652170855.1,286047005.1,P
1652170856.0,286047005.1,P
1652170875.8,286047007.5,P
1652170895.6,286047006.9,Y
1652170915.5,286047012.0,P
1652170935.3,286047009.5,N
1652170955.1,286047007.7,N
1652170975.9,286047005.0,N
1652170995.7,286047005.9,N
1652171015.6,286047001.6,N
1652171035.4,286047002.1,N
1652171055.2,286047002.1,N
1652171105.1,286046998.3,E
1652171115.4,286046998.3,N
1652171135.3,286047001.1,P
1652171185.2,286046996.9,E
1652171195.1,286047001.1,N
1652171196.0,286047001.1,P
1652171215.8,286047000.2,P
1652171235.7,286047000.5,N
1652171255.5,286046998.5,Y
1652171275.3,286046996.8,P
1652171295.2,286046996.9,N
1652171315.0,286046997.0,N
1652171315.9,286046997.0,N
1652171335.8,286046997.2,N
1652171355.6,286046996.7,N
1652171375.4,286046997.8,N
1652171395.3,286046997.0,N
1652171415.1,286046996.7,N
1652171435.8,286046997.0,N
1652171455.7,286046997.2,N
1652171475.5,286046997.2,N
1652171495.4,286046997.4,N
1652171515.2,286046997.2,N
1652171535.0,286046996.9,Y
1652171535.9,286046996.9,P
1652171555.8,286047000.0,N
1652171575.6,286046999.9,N
1652171595.4,286047000.6,N
1652171615.3,286047001.0,N
1652171635.1,286047000.1,N
1652171655.9,286047000.0,N
1652171675.7,286047000.2,N
1652171695.5,286046999.8,N
1652171715.4,286047001.0,N
1652171735.2,286047002.8,N
1652171755.0,286047000.3,N
1652171755.9,286047000.3,N
1652171775.8,286046999.9,N
1652171795.6,286047000.2,N
1652171815.5,286046999.9,N
1652171835.3,286047000.3,N
1652171855.1,286047000.2,N
1652171875.9,286047002.7,N
1652171895.7,286047000.1,N
1652171915.6,286046999.9,N
1652171935.4,286047002.7,N
1652171955.2,286047002.8,N
1652171975.1,286047000.0,N
1652171976.0,286047000.0,N
1652171995.8,286047000.0,N
1652172015.6,286047002.6,N
1652172035.5,286047001.6,N
1652172055.3,286047004.0,N
1652172075.2,286047001.4,N
1652172095.9,286047004.1,Y
1652172115.7,286047001.3,P
1652172135.6,286047001.8,P
1652172155.4,286047004.4,P
1652172175.3,286047004.4,Y
1652172195.1,286047001.0,P
1652172196.0,286047001.0,N
1652172215.8,286047000.6,N
1652172235.7,286047000.3,N
1652172255.5,286047002.5,Y
1652172275.4,286047000.0,P
1652172295.2,286047002.7,P
1652172315.0,286047000.4,N
1652172315.9,286047000.4,N
1652172335.8,286047000.4,N
1652172355.6,286046998.5,N
1652172375.4,286046998.7,N
1652172395.3,286046998.1,N
1652172415.1,286046998.6,N
1652172435.9,286046998.5,N
1652172455.7,286046996.7,N
1652172475.5,286046996.8,N
1652172495.4,286046996.6,N
1652172515.2,286046999.2,N
1652172535.0,286046999.0,N
1652172535.9,286046999.0,N
1652172555.8,286046998.4,N
1652172575.6,286046998.3,N
1652172595.5,286047000.4,N
1652172615.3,286047001.0,N
1652172635.1,286046998.6,N
1652172655.9,286047001.2,N
1652172675.7,286046998.4,N
1652172695.5,286046998.7,N
1652172715.4,286046998.9,N
1652172735.2,286046998.8,N
1652172755.1,286047000.7,N
1652172756.0,286047000.7,N
1652172775.8,286047000.7,N
1652172795.6,286047000.8,N
1652172815.5,286046998.5,N
1652172835.3,286047001.0,N
1652172855.1,286047002.5,N
1652172875.9,286047000.1,N
1652172895.7,286047000.3,N
1652172915.6,286047000.9,N
1652172935.4,286047000.6,N
1652172955.2,286047000.2,N
1652172975.1,286047000.8,N
1652172976.0,286047000.8,N
1652172995.8,286047000.3,N
1652173015.6,286047000.3,N
1652173035.5,286046998.6,N
1652173055.3,286046998.7,N
1652173075.2,286047001.1,N
1652173095.9,286047000.9,N
1652173115.7,286046999.8,N
1652173135.6,286047000.0,N
1652173155.4,286047000.9,N
1652173175.2,286047000.3,N
1652173195.1,286046999.8,N
1652173196.0,286046999.8,N
